LiveATC.Net - Listen to live air traffic control over the Internet!


ICAO: ENVA  IATA: TRD   Airport: Vaernes Airport
City: Trondheim
Country: Norway   Continent: Europe
ENVA METAR Weather: ENVA 282220Z 09006KT CAVOK 17/08 Q1010 RMK WIND 670FT VRB05KT
ENVA Flight Activity (FlightAware)

ENVA Gnd/Twr/App
Feed Status: UP   Listeners: 2
Listen in your browser - HTML5 player (in browser, HTML5)
Click here to listen with your own player (launches your MP3 player)
Archive Access: ENVA Gnd/Twr/App
FacilityFrequency
Trondheim Approach118.600
Trondheim Ground121.600
Trondheim Tower119.400

NOTICE

Unauthorized use prohibited. See LiveATC.net Terms of Service


Airport/ARTCC Code
Frequency Search
(e.g., 124.400, 128.75)
Site-wide search
 


Browse Feeds
Top 50 Feeds
Coverage Map
Bad Weather Areas

LiveATC FAQ
Offer LiveATC feed
Contact LiveATC.net
Press Inquiries

LiveATC on iPhone
LiveATC on Android

Windows Phone
Windows 8/10

LiveATC Mobile
(Mobile browser)

ATC Audio Archives
Interesting Recordings

LiveATC Forums


Home Page
About LiveATC.net
Make a Donation
Terms of Use
Privacy Policy

Canadian Air Freqs

AIRMETs/SIGMETs

FAA Airport Status
Nat'l Airspace Status
Arrival Demand Charts


Server Software By:
Icecast.org
Liquidsoap